SAS209 KATL-EKCH

Flight info

Callsign SAS209
Flight time N/A
Altitude 37000
Route SMKEY2 BOBBD Q71 PSB J49 DGRAF/N0492F390 J49 ALB DCT TOPPS N635A RIKAL/M084F400 NATS NETKI/N0492F410 DCT NIBOG DCT MAC DCT SURAT DCT PETIL DCT TESPI
Aircraft A359/H-SDE2E3GHIJ3J4J5LM1ORWXY/LB1D1

Departure

Time 2026-05-07 23:46
Airport Hartsfield Jackson Atlanta International Airport (KATL)

Arrival

Time N/A
Airport Copenhagen Kastrup Airport (EKCH)
Time Latitude Longitude Altitude Speed Heading
2026-05-07 22:34 33.64252 -84.42643 1013 ft 0 kts 89°
2026-05-07 23:33 33.64252 -84.42644 1013 ft 1 kts 89°
2026-05-07 23:33 33.64252 -84.42673 1013 ft 4 kts 86°
2026-05-07 23:34 33.64247 -84.42704 1013 ft 4 kts 63°
2026-05-07 23:34 33.64231 -84.42727 1013 ft 4 kts 24°
2026-05-07 23:34 33.64214 -84.42733 1013 ft 0 kts
2026-05-07 23:38 33.64255 -84.42733 1013 ft 10 kts 359°
2026-05-07 23:38 33.64327 -84.42734 1013 ft 7 kts
2026-05-07 23:39 33.64331 -84.42734 1013 ft 0 kts
2026-05-07 23:39 33.64348 -84.42734 1013 ft 11 kts 360°
2026-05-07 23:40 33.64451 -84.42755 1013 ft 14 kts 341°
2026-05-07 23:40 33.64533 -84.42723 1013 ft 13 kts 57°
2026-05-07 23:40 33.64541 -84.42589 1012 ft 22 kts 90°
2026-05-07 23:40 33.64542 -84.42434 1012 ft 17 kts 89°
2026-05-07 23:41 33.64542 -84.42284 1012 ft 19 kts 90°
2026-05-07 23:41 33.64542 -84.42118 1012 ft 21 kts 90°
2026-05-07 23:41 33.64542 -84.41934 1012 ft 23 kts 90°
2026-05-07 23:41 33.64542 -84.41739 1013 ft 24 kts 90°
2026-05-07 23:42 33.64542 -84.41533 1013 ft 26 kts 90°
2026-05-07 23:42 33.64543 -84.41313 1013 ft 27 kts 90°
2026-05-07 23:42 33.64543 -84.41115 1013 ft 16 kts 90°
2026-05-07 23:42 33.64543 -84.40968 1012 ft 19 kts 90°
2026-05-07 23:43 33.64551 -84.40821 1012 ft 17 kts 73°
2026-05-07 23:43 33.64568 -84.40697 1012 ft 13 kts 88°
2026-05-07 23:43 33.64581 -84.40602 1011 ft 8 kts 57°
2026-05-07 23:43 33.64584 -84.40597 1011 ft 0 kts 51°
2026-05-07 23:45 33.64605 -84.40580 1011 ft 10 kts 24°
2026-05-07 23:45 33.64681 -84.40624 1010 ft 8 kts 279°
2026-05-07 23:45 33.64682 -84.40703 1010 ft 19 kts 269°
2026-05-07 23:45 33.64682 -84.41182 1013 ft 94 kts 270°
2026-05-07 23:46 33.64684 -84.42218 1010 ft 152 kts 272°
2026-05-07 23:46 33.64751 -84.43533 1693 ft 150 kts 277°
2026-05-07 23:46 33.64815 -84.44344 2231 ft 146 kts 277°
2026-05-07 23:46 33.64957 -84.45624 2642 ft 164 kts 281°
2026-05-07 23:47 33.65350 -84.47539 2938 ft 193 kts 289°
2026-05-07 23:47 33.65860 -84.49108 3266 ft 210 kts 293°
2026-05-07 23:47 33.66262 -84.50200 3443 ft 225 kts 294°
2026-05-07 23:47 33.66941 -84.51999 3780 ft 243 kts 295°
2026-05-07 23:48 33.67654 -84.53865 4406 ft 247 kts 294°
2026-05-07 23:48 33.68416 -84.55726 5067 ft 249 kts 299°
2026-05-07 23:48 33.69573 -84.57279 5768 ft 254 kts 320°
2026-05-07 23:48 33.71214 -84.58131 6469 ft 265 kts 344°
2026-05-07 23:49 33.73092 -84.58269 7117 ft 274 kts 353°
2026-05-07 23:49 33.75013 -84.58224 7780 ft 277 kts 354°
2026-05-07 23:49 33.76955 -84.58172 8458 ft 279 kts 353°
2026-05-07 23:49 33.78884 -84.58132 9145 ft 282 kts 352°
2026-05-07 23:50 33.80874 -84.57938 9797 ft 295 kts
2026-05-07 23:50 33.82845 -84.57028 10352 ft 313 kts 18°
2026-05-07 23:50 33.84817 -84.55746 10659 ft 331 kts 20°
2026-05-07 23:50 33.86879 -84.54350 10901 ft 348 kts 20°
2026-05-07 23:51 33.89046 -84.52886 11163 ft 364 kts 20°
2026-05-07 23:51 33.91301 -84.51370 11451 ft 377 kts 20°
2026-05-07 23:51 33.93611 -84.49818 11911 ft 383 kts 20°
2026-05-07 23:51 33.95951 -84.48246 12455 ft 386 kts 20°
2026-05-07 23:52 33.98291 -84.46679 12937 ft 391 kts 19°
2026-05-07 23:52 34.00686 -84.45077 13439 ft 395 kts 19°
2026-05-07 23:52 34.03098 -84.43463 13948 ft 398 kts 19°
2026-05-07 23:52 34.05531 -84.41836 14412 ft 402 kts 19°
2026-05-07 23:53 34.07999 -84.40186 14811 ft 407 kts 18°
2026-05-07 23:53 34.10462 -84.38538 15269 ft 411 kts 19°
2026-05-07 23:53 34.12977 -84.36852 15691 ft 415 kts 19°
2026-05-07 23:53 34.15518 -84.35150 16118 ft 419 kts 18°
2026-05-07 23:54 34.18081 -84.33431 16553 ft 423 kts 18°
2026-05-07 23:54 34.20671 -84.31692 16960 ft 428 kts 18°
2026-05-07 23:54 34.23296 -84.29929 17397 ft 432 kts 18°
2026-05-07 23:54 34.25934 -84.28157 17797 ft 436 kts 18°
2026-05-07 23:55 34.28652 -84.26545 18168 ft 429 kts
2026-05-07 23:55 34.31481 -84.25564 18538 ft 418 kts 359°
2026-05-07 23:55 34.34299 -84.24879 18975 ft 418 kts 358°
2026-05-07 23:55 34.37164 -84.24220 19390 ft 419 kts 358°
2026-05-07 23:56 34.40020 -84.23557 20059 ft 413 kts 358°
2026-05-07 23:56 34.42814 -84.22897 20933 ft 403 kts 358°
2026-05-07 23:56 34.45537 -84.22254 21809 ft 393 kts 357°
2026-05-07 23:56 34.48155 -84.21636 22713 ft 383 kts 356°
2026-05-07 23:57 34.50742 -84.21026 23633 ft 373 kts 356°
2026-05-07 23:57 34.53253 -84.20433 24419 ft 363 kts 355°
2026-05-07 23:57 34.55698 -84.19856 25180 ft 353 kts 354°
2026-05-07 23:57 34.58107 -84.19293 25571 ft 352 kts 354°
2026-05-07 23:58 34.60531 -84.18739 25731 ft 357 kts 354°
2026-05-07 23:58 34.62999 -84.18175 25774 ft 364 kts 354°
2026-05-07 23:58 34.65513 -84.17593 25826 ft 370 kts 354°
2026-05-07 23:58 34.68065 -84.16997 25937 ft 376 kts 355°
2026-05-07 23:59 34.70660 -84.16388 26059 ft 382 kts 355°
2026-05-07 23:59 34.73293 -84.15767 26167 ft 388 kts 355°
2026-05-07 23:59 34.75964 -84.15138 26265 ft 393 kts 355°
2026-05-07 23:59 34.78675 -84.14474 26357 ft 401 kts 357°
2026-05-08 00:00 34.81395 -84.13711 26469 ft 408 kts 358°
2026-05-08 00:00 34.84178 -84.12914 26565 ft 414 kts 358°
2026-05-08 00:00 34.87009 -84.12112 26761 ft 421 kts 358°
2026-05-08 00:00 34.89885 -84.11306 26920 ft 427 kts 358°
2026-05-08 00:01 34.92806 -84.10489 27055 ft 433 kts 358°
2026-05-08 00:01 34.95771 -84.09662 27195 ft 440 kts 358°
2026-05-08 00:01 34.98736 -84.08836 27303 ft 446 kts 358°
2026-05-08 00:01 35.01785 -84.07985 27438 ft 452 kts 358°
2026-05-08 00:02 35.04879 -84.07121 27571 ft 458 kts 358°
2026-05-08 00:02 35.08013 -84.06246 27690 ft 464 kts 358°
2026-05-08 00:02 35.11180 -84.05360 27851 ft 469 kts 358°
2026-05-08 00:02 35.14390 -84.04462 27970 ft 475 kts 358°
2026-05-08 00:03 35.17631 -84.03556 28117 ft 480 kts 358°
2026-05-08 00:03 35.20858 -84.02649 28373 ft 483 kts 358°
2026-05-08 00:03 35.24145 -84.01724 28640 ft 485 kts 358°
2026-05-08 00:03 35.27442 -84.00794 28958 ft 486 kts 358°
2026-05-08 00:04 35.30745 -83.99864 29220 ft 487 kts 357°
2026-05-08 00:04 35.34064 -83.98933 29410 ft 491 kts 357°
2026-05-08 00:04 35.37407 -83.97993 29617 ft 495 kts 357°
2026-05-08 00:04 35.40799 -83.97044 29709 ft 501 kts 357°
2026-05-08 00:05 35.44194 -83.96083 30105 ft 500 kts 357°
2026-05-08 00:05 35.47596 -83.95119 30344 ft 503 kts 357°
2026-05-08 00:05 35.50979 -83.94167 30501 ft 506 kts 357°
2026-05-08 00:05 35.54420 -83.93196 30731 ft 508 kts 357°
2026-05-08 00:06 35.57877 -83.92219 30973 ft 511 kts 357°
2026-05-08 00:06 35.61346 -83.91236 31316 ft 511 kts 357°
2026-05-08 00:06 35.64822 -83.90252 31492 ft 514 kts 357°
2026-05-08 00:06 35.68334 -83.89260 31655 ft 518 kts 357°
2026-05-08 00:07 35.71847 -83.88261 31925 ft 519 kts 357°
2026-05-08 00:07 35.75377 -83.87258 32146 ft 520 kts 357°
2026-05-08 00:07 35.78868 -83.86132 32333 ft 535 kts
2026-05-08 00:07 35.82387 -83.84319 32533 ft 556 kts 12°
2026-05-08 00:08 35.85852 -83.82123 32721 ft 563 kts 14°
2026-05-08 00:08 35.89301 -83.79783 32940 ft 568 kts 16°
2026-05-08 00:08 35.92743 -83.77376 33196 ft 569 kts 17°
2026-05-08 00:08 35.96181 -83.74948 33506 ft 568 kts 17°
2026-05-08 00:09 35.99617 -83.72530 33808 ft 567 kts 16°
2026-05-08 00:09 36.03054 -83.70129 34111 ft 567 kts 16°
2026-05-08 00:09 36.06493 -83.67741 34399 ft 565 kts 16°
2026-05-08 00:09 36.09920 -83.65371 34808 ft 562 kts 15°
2026-05-08 00:10 36.13275 -83.63050 35246 ft 557 kts 15°
2026-05-08 00:10 36.16662 -83.60709 35588 ft 555 kts 15°
2026-05-08 00:10 36.20029 -83.58386 35885 ft 554 kts 15°
2026-05-08 00:10 36.23395 -83.56065 36148 ft 554 kts 15°
2026-05-08 00:11 36.26771 -83.53733 36444 ft 553 kts 15°
2026-05-08 00:11 36.30124 -83.51411 36751 ft 552 kts 15°
2026-05-08 00:11 36.33487 -83.49079 37018 ft 553 kts 15°
2026-05-08 00:11 36.36842 -83.46750 37001 ft 551 kts 15°
2026-05-08 00:12 36.43527 -83.42097 37001 ft 550 kts 15°
2026-05-08 00:12 36.50211 -83.37441 36996 ft 551 kts 15°
2026-05-08 00:13 36.56868 -83.32793 37066 ft 551 kts 15°
2026-05-08 00:13 36.63553 -83.28111 36990 ft 550 kts 15°
2026-05-08 00:14 36.70226 -83.23430 36990 ft 549 kts 15°
2026-05-08 00:14 36.76848 -83.18777 36996 ft 549 kts 15°
2026-05-08 00:15 36.83507 -83.14090 36990 ft 549 kts 15°
2026-05-08 00:15 36.90168 -83.09390 36999 ft 548 kts 15°
2026-05-08 00:16 36.93436 -83.06839 37001 ft 563 kts 22°
2026-05-08 00:16 36.96437 -83.03625 37003 ft 584 kts 34°
2026-05-08 00:16 37.01774 -82.95783 36998 ft 597 kts 41°
2026-05-08 00:17 37.06859 -82.87526 37008 ft 598 kts 43°
2026-05-08 00:17 37.11872 -82.79205 37007 ft 598 kts 43°
2026-05-08 00:18 37.16834 -82.70790 37009 ft 599 kts 44°
2026-05-08 00:18 37.21767 -82.62436 37004 ft 598 kts 44°
2026-05-08 00:19 37.26737 -82.54054 36998 ft 598 kts 43°
2026-05-08 00:19 37.31711 -82.45674 36986 ft 598 kts 43°
2026-05-08 00:20 37.36653 -82.37326 36976 ft 598 kts 44°
2026-05-08 00:20 37.41622 -82.28905 36985 ft 598 kts 44°
2026-05-08 00:21 37.46572 -82.20490 37046 ft 598 kts 44°
2026-05-08 00:21 37.51994 -82.12819 36986 ft 568 kts 26°
2026-05-08 00:22 37.58245 -82.07010 36995 ft 559 kts 21°
2026-05-08 00:22 37.64672 -82.01496 36989 ft 557 kts 21°
2026-05-08 00:23 37.71120 -81.96026 37001 ft 557 kts 21°
2026-05-08 00:23 37.77492 -81.90568 36992 ft 556 kts 22°
2026-05-08 00:24 37.83885 -81.85051 36993 ft 555 kts 22°
2026-05-08 00:24 37.90279 -81.79520 36998 ft 556 kts 22°
2026-05-08 00:25 37.96631 -81.74012 36994 ft 555 kts 22°
2026-05-08 00:25 38.03012 -81.68464 36989 ft 555 kts 22°
2026-05-08 00:26 38.09398 -81.62904 36992 ft 555 kts 22°
2026-05-08 00:26 38.15736 -81.57370 36988 ft 555 kts 22°
2026-05-08 00:27 38.22105 -81.51799 36989 ft 555 kts 22°
2026-05-08 00:27 38.28471 -81.46220 36988 ft 555 kts 22°
2026-05-08 00:28 38.34846 -81.40630 37044 ft 555 kts 23°
2026-05-08 00:28 38.41159 -81.35065 36983 ft 555 kts 23°
2026-05-08 00:29 38.47523 -81.29446 36980 ft 555 kts 23°
2026-05-08 00:29 38.53879 -81.23832 36986 ft 555 kts 24°
2026-05-08 00:30 38.60204 -81.18224 36981 ft 556 kts 24°
2026-05-08 00:30 38.66569 -81.12566 36979 ft 556 kts 24°
2026-05-08 00:31 38.71856 -81.07859 36974 ft 556 kts 24°
2026-05-08 00:31 38.79248 -81.01269 37015 ft 556 kts 24°
2026-05-08 00:32 38.84537 -80.96542 36970 ft 557 kts 24°
2026-05-08 00:32 38.90898 -80.90843 36930 ft 557 kts 24°
2026-05-08 00:33 38.97271 -80.85124 36963 ft 558 kts 24°
2026-05-08 00:33 39.03259 -80.78644 36966 ft 576 kts 37°
2026-05-08 00:34 39.08735 -80.71053 36959 ft 580 kts 39°
2026-05-08 00:34 39.14097 -80.63274 36962 ft 580 kts 40°
2026-05-08 00:35 39.19454 -80.55474 36956 ft 580 kts 40°
2026-05-08 00:35 39.24785 -80.47742 36958 ft 579 kts 40°
2026-05-08 00:36 39.30151 -80.39969 36960 ft 579 kts 40°
2026-05-08 00:36 39.35520 -80.32177 36961 ft 580 kts 40°
2026-05-08 00:37 39.40888 -80.24363 36980 ft 580 kts 40°
2026-05-08 00:38 39.48870 -80.12699 36957 ft 579 kts 40°
2026-05-08 00:38 39.54215 -80.04875 36963 ft 580 kts 40°
2026-05-08 00:39 39.59564 -79.97028 36962 ft 580 kts 40°
2026-05-08 00:39 39.64900 -79.89169 36961 ft 579 kts 41°
2026-05-08 00:40 39.70187 -79.81364 36962 ft 579 kts 41°
2026-05-08 00:40 39.75510 -79.73490 36962 ft 579 kts 41°
2026-05-08 00:41 39.80831 -79.65601 36994 ft 580 kts 41°
2026-05-08 00:41 39.86143 -79.57703 36970 ft 578 kts 41°
2026-05-08 00:42 39.91404 -79.49859 36970 ft 577 kts 41°
2026-05-08 00:42 39.96693 -79.41959 36932 ft 578 kts 41°
2026-05-08 00:43 40.01986 -79.34033 36969 ft 578 kts 42°
2026-05-08 00:43 40.07270 -79.26094 36951 ft 578 kts 42°
2026-05-08 00:44 40.12512 -79.18201 36960 ft 578 kts 42°
2026-05-08 00:44 40.17803 -79.10269 36933 ft 577 kts 41°
2026-05-08 00:45 40.23140 -79.02397 36916 ft 577 kts 41°
2026-05-08 00:45 40.28446 -78.94567 36907 ft 578 kts 41°
2026-05-08 00:46 40.33779 -78.86654 36911 ft 579 kts 41°
2026-05-08 00:46 40.39114 -78.78704 36912 ft 578 kts 42°
2026-05-08 00:47 40.44387 -78.70821 36930 ft 577 kts 42°
2026-05-08 00:47 40.49679 -78.62894 36924 ft 577 kts 42°
2026-05-08 00:48 40.54986 -78.54927 36923 ft 578 kts 42°
2026-05-08 00:48 40.60253 -78.46996 36925 ft 578 kts 42°
2026-05-08 00:49 40.65544 -78.39008 36921 ft 577 kts 42°
2026-05-08 00:49 40.70822 -78.31018 36928 ft 577 kts 42°
2026-05-08 00:50 40.76099 -78.23011 36948 ft 577 kts 43°
2026-05-08 00:50 40.81326 -78.15056 36902 ft 576 kts 43°
2026-05-08 00:51 40.86576 -78.07046 36897 ft 576 kts 43°
2026-05-08 00:51 40.91680 -77.98825 36898 ft 583 kts 52°
2026-05-08 00:52 40.95967 -77.89769 36889 ft 585 kts 54°
2026-05-08 00:52 41.00109 -77.80476 36898 ft 586 kts 56°
2026-05-08 00:53 41.04215 -77.71140 36898 ft 586 kts 56°
2026-05-08 00:53 41.08305 -77.61865 36894 ft 586 kts 55°
2026-05-08 00:54 41.12427 -77.52527 36901 ft 586 kts 56°
2026-05-08 00:54 41.16515 -77.43252 36885 ft 585 kts 56°
2026-05-08 00:55 41.20624 -77.33908 36875 ft 585 kts 56°
2026-05-08 00:55 41.24716 -77.24550 36870 ft 585 kts 56°
2026-05-08 00:56 41.28799 -77.15185 36856 ft 585 kts 56°
2026-05-08 00:56 41.32856 -77.05857 36857 ft 586 kts 56°
2026-05-08 00:57 41.36932 -76.96457 36872 ft 585 kts 56°
2026-05-08 00:57 41.40995 -76.87055 36868 ft 585 kts 56°
2026-05-08 00:58 41.45050 -76.77645 36879 ft 585 kts 57°
2026-05-08 00:58 41.49099 -76.68218 36875 ft 584 kts 57°
2026-05-08 00:59 41.53106 -76.58861 36875 ft 584 kts 57°
2026-05-08 00:59 41.57132 -76.49443 36854 ft 583 kts 57°
2026-05-08 01:00 41.61151 -76.39988 36897 ft 585 kts 57°
2026-05-08 01:00 41.65126 -76.30604 36885 ft 581 kts 57°
2026-05-08 01:01 41.69103 -76.21193 36884 ft 580 kts 57°
2026-05-08 01:01 41.73080 -76.11770 36856 ft 580 kts 58°
2026-05-08 01:02 41.77020 -76.02384 36921 ft 582 kts 58°
2026-05-08 01:02 41.80989 -75.92902 36886 ft 581 kts 58°
2026-05-08 01:03 41.84948 -75.83421 36894 ft 581 kts 58°
2026-05-08 01:03 41.88865 -75.73994 36893 ft 582 kts 58°
2026-05-08 01:04 41.92816 -75.64462 36899 ft 583 kts 58°
2026-05-08 01:04 41.96767 -75.54918 36899 ft 584 kts 58°
2026-05-08 01:05 42.00684 -75.45409 36901 ft 584 kts 59°
2026-05-08 01:05 42.04613 -75.35835 36887 ft 585 kts 59°
2026-05-08 01:06 42.08615 -75.26276 36924 ft 585 kts 56°
2026-05-08 01:06 42.12933 -75.17016 36906 ft 582 kts 54°
2026-05-08 01:07 42.17299 -75.07805 36906 ft 582 kts 55°
2026-05-08 01:07 42.21581 -74.98596 36905 ft 585 kts 56°
2026-05-08 01:08 42.25870 -74.89240 36911 ft 585 kts 56°
2026-05-08 01:08 42.30142 -74.79863 36908 ft 585 kts 56°
2026-05-08 01:09 42.34377 -74.70547 36905 ft 584 kts 56°
2026-05-08 01:09 42.38637 -74.61156 36905 ft 585 kts 56°
2026-05-08 01:10 42.42882 -74.51768 36909 ft 583 kts 56°